TimeCST,TemperatureF,Dew PointF,Humidity,Sea Level PressureIn,VisibilityMPH,Wind Direction,Wind SpeedMPH,Gust SpeedMPH,PrecipitationIn,Events,Conditions,WindDirDegrees,DateUTC
12:53 AM,19.9,12.9,74,30.49,10.0,NNW,15.0,19.6,N/A,,Overcast,340,2011-12-06 06:53:00
1:02 AM,19.4,12.2,74,30.45,10.0,North,12.7,-,N/A,,Overcast,350,2011-12-06 07:02:00
1:48 AM,19.4,12.2,74,30.44,10.0,North,11.5,-,N/A,,Overcast,350,2011-12-06 07:48:00
1:53 AM,19.4,12.2,74,30.44,10.0,NNW,6.9,-,N/A,,Overcast,340,2011-12-06 07:53:00
2:53 AM,19.9,12.0,71,30.47,10.0,North,11.5,-,N/A,,Overcast,350,2011-12-06 08:53:00
3:01 AM,19.4,12.2,74,30.43,10.0,North,12.7,-,N/A,,Overcast,360,2011-12-06 09:01:00
3:53 AM,19.0,12.9,77,30.45,10.0,North,8.1,-,N/A,,Overcast,350,2011-12-06 09:53:00
4:20 AM,19.4,12.2,74,30.40,10.0,North,11.5,18.4,N/A,,Overcast,350,2011-12-06 10:20:00
4:53 AM,19.0,12.9,77,30.44,10.0,NNW,10.4,18.4,N/A,,Overcast,340,2011-12-06 10:53:00
5:10 AM,19.4,12.2,74,30.40,10.0,North,10.4,-,N/A,,Overcast,360,2011-12-06 11:10:00
5:53 AM,19.4,12.2,74,30.40,10.0,North,12.7,-,N/A,,Overcast,10,2011-12-06 11:53:00
6:53 AM,19.0,12.0,74,30.44,10.0,North,10.4,-,N/A,,Overcast,350,2011-12-06 12:53:00
7:53 AM,19.0,12.0,74,30.44,9.0,North,8.1,-,N/A,,Overcast,10,2011-12-06 13:53:00
8:53 AM,19.9,12.9,74,30.44,6.0,North,5.8,-,N/A,,Haze,360,2011-12-06 14:53:00
9:40 AM,21.2,12.2,68,30.41,10.0,NNE,5.8,-,N/A,,Scattered Clouds,30,2011-12-06 15:40:00
9:53 AM,21.9,14.0,72,30.45,10.0,North,3.5,-,N/A,,Mostly Cloudy,350,2011-12-06 15:53:00
10:21 AM,21.2,12.2,68,30.40,10.0,North,4.6,-,N/A,,Scattered Clouds,360,2011-12-06 16:21:00
10:53 AM,23.0,12.9,65,30.43,10.0,North,4.6,-,N/A,,Mostly Cloudy,360,2011-12-06 16:53:00
11:53 AM,25.0,12.9,60,30.40,10.0,North,6.9,-,N/A,,Mostly Cloudy,350,2011-12-06 17:53:00
12:53 PM,27.0,12.9,56,30.36,10.0,North,5.8,-,N/A,,Clear,360,2011-12-06 18:53:00
1:53 PM,28.9,12.0,49,30.33,10.0,NNE,6.9,-,N/A,,Clear,20,2011-12-06 19:53:00
2:53 PM,28.9,12.9,51,30.31,10.0,North,6.9,-,N/A,,Clear,350,2011-12-06 20:53:00
3:53 PM,28.9,12.0,49,30.30,10.0,North,4.6,-,N/A,,Clear,10,2011-12-06 21:53:00
4:53 PM,26.1,12.9,58,30.30,10.0,NNW,4.6,-,N/A,,Clear,340,2011-12-06 22:53:00
5:53 PM,24.1,12.9,62,30.31,10.0,NW,4.6,-,N/A,,Clear,320,2011-12-06 23:53:00
6:53 PM,23.0,14.0,68,30.32,10.0,Calm,Calm,-,N/A,,Clear,0,2011-12-07 00:53:00
7:53 PM,19.9,12.9,74,30.32,10.0,Calm,Calm,-,N/A,,Clear,0,2011-12-07 01:53:00
8:53 PM,19.9,12.0,71,30.32,10.0,Calm,Calm,-,N/A,,Clear,0,2011-12-07 02:53:00
9:53 PM,18.0,12.9,81,30.31,10.0,Calm,Calm,-,N/A,,Clear,0,2011-12-07 03:53:00
10:53 PM,17.1,12.9,84,30.30,10.0,Calm,Calm,-,N/A,,Clear,0,2011-12-07 04:53:00
11:53 PM,16.0,12.0,84,30.30,10.0,Calm,Calm,-,N/A,,Clear,0,2011-12-07 05:53:00